Regional Weather Roundup
Issued by NWS

Home | Current Version | Previous Version | Text Only | Print | Product List | Glossary On
Versions: 1 2 3 4 5 6 7 8 9 10 11 12 13 14 15 16 17 18 19 20 21 22 23 24 25 26 27 28 29 30 31 32 33 34 35 36 37 38 39 40 41 42 43 44 45 46 47 48 49 50
000
ASUS43 KIND 140709
RWRIN

WEATHER ROUNDUP FOR INDIANA
NATIONAL WEATHER SERVICE INDIANAPOLIS IN
300 AM EDT MON JUL 14 2014

NOTE: "FAIR" INDICATES FEW OR NO CLOUDS BELOW 12,000 FEET WITH NO
SIGNIFICANT WEATHER AND/OR OBSTRUCTIONS TO VISIBILITY.

* - STATION DOES NOT REPORT WEATHER SUCH AS PRECIPITATION OR FOG.

+ - STATION NOT QUALITY CONTROLLED BY THE NATIONAL WEATHER SERVICE.
    USE DATA WITH CAUTION...ESPECIALLY DEWPOINT AND RELATIVE
    HUMIDITY OBSERVATIONS.

INZ001>003-010>013-019-020-140800-
NORTHWEST INDIANA

CITY           SKY/WX    TMP DP  RH WIND       PRES   REMARKS
GARY /AIRPORT/ PTCLDY    70  63  79 W6        29.90S
KNOX *+        MOCLDY    70  65  85 W6        29.88F
LA PORTE +     MOCLDY    70  64  83 W3        29.89F
MICHIGAN CITY+ MOCLDY    70  61  73 W7        29.89S
MONTICELLO +   PTCLDY    66  64  93 CALM      29.89F
RENSSELAER +   CLOUDY    70  70 100 CALM      29.91S
VALPARAISO     CLOUDY    70  65  84 W7        29.90F

$$

LMZ046-743>745-140800-
SOUTHERN LAKE MICHIGAN

STATION/POSITION TIME  TEMP WIND        PRES
                       AIR  DIR/SP/G
                 (UTC) (F)  (DEG/KT/KT) (MB)
MICHIGAN CITY    0700   72  240/ 11/ 12   N/A

$$

INZ004-005-014>016-021>024-140800-
NORTH CENTRAL INDIANA

CITY           SKY/WX    TMP DP  RH WIND       PRES   REMARKS
GOSHEN         MOCLDY    71  67  87 SW6       29.88F
LOGANSPORT +   PTCLDY    63  61  94 CALM      29.90F
PERU/GRISSOM   PTCLDY    65  65 100 SW5       29.89F
ROCHESTER +    PTCLDY    72  66  83 W3        29.89F
SOUTH BEND     MOCLDY    70  64  81 W6        29.88F
WARSAW +       MOCLDY    70  68  94 W6        29.88F

$$

INZ006>009-017-018-025>027-140800-
NORTHEAST INDIANA

CITY           SKY/WX    TMP DP  RH WIND       PRES   REMARKS
ANGOLA *+      CLEAR     68  61  77 SW5       29.88F
AUBURN +       MOCLDY    70  64  83 CALM      29.90S
FORT WAYNE     MOCLDY    68  65  90 SW3       29.89F
HUNTINGTON +   PTCLDY    67  65  93 CALM      29.89F

$$

INZ028-029-035-036-043>045-051>053-140800-
WEST CENTRAL INDIANA

CITY           SKY/WX    TMP DP  RH WIND       PRES   REMARKS
GREENCASTLE +  MOCLDY    70  70 100 CALM      29.93R FOG
LAFAYETTE      PTCLDY    64  64 100 CALM      29.91R FOG
TERRE HAUTE    CLOUDY    73  71  93 NW3       29.92R

$$

INZ030>032-037>040-046>048-054>057-064-065-140800-
CENTRAL INDIANA

CITY           SKY/WX    TMP DP  RH WIND       PRES   REMARKS
CP ATTERBURY + FOG       72  70  94 CALM      29.92R VSB 1/4
INDIANAPOLIS   MOCLDY    71  69  93 W3        29.91R
-EAGLE CREEK   MOCLDY    72  68  87 W3        29.91S
KOKOMO *+      PTCLDY    64  57  77 W3        29.90F
MARION +       PTCLDY    64  63  97 S3        29.91F
MT COMFORT *+  MOCLDY    66 N/A N/A CALM      29.92S
SHELBYVILLE    FOG       74  71  91 S3        29.90S VSB 1/4
ZIONSVILLE +   MOCLDY    68  64  89 CALM      29.92F

$$

INZ033-034-041-042-049-050-058-059-140800-
EAST CENTRAL INDIANA

CITY           SKY/WX    TMP DP  RH WIND       PRES   REMARKS
MUNCIE         MOCLDY    68  65  90 CALM      29.91F

$$

INZ060-061-067>069-081>083-085>088-140800-
SOUTHWEST INDIANA

CITY           SKY/WX    TMP DP  RH WIND       PRES   REMARKS
EVANSVILLE     CLOUDY    74  70  87 SW6       29.94F
HUNTINGBURG *+ CLOUDY    72  68  88 SW6       29.95R
WASHINGTON +   TSTM      73  72  96 SW8       29.92R

$$

INZ062-063-066-070>080-084-089>092-140800-
SOUTH CENTRAL AND SOUTHEAST INDIANA

CITY           SKY/WX    TMP DP  RH WIND       PRES   REMARKS
BEDFORD +      TSTM      72  68  88 W6        29.94
BLOOMINGTON    RAIN      72  70  93 SW12      29.93R FOG
NORTH VERNON + CLOUDY    72  72 100 S5        29.92

$$



USA.gov is the U.S. government's official web portal to all federal, state and local government web resources and services.